Погода в Смоляниново

Россия / Приморский край     43°16′50″N   132°27′10″E
темп.,
°C
ветер,
м/с
пор.,
м/с
влажн.,
%
обл.,
%
осадки,
мм/ч
давл.,
гПа
погр.,
м
22 мая, вс
вс2201:00+11вюв1194100 0.3 100313
04:00+10всв119683 0.4 100310
07:00+11св12944 0.1 100469
10:00+19с46530 0.1 10051125
13:00+21ссз573762 0.0 10052270
16:00+21с683857 0.0 10052351
19:00+19с48470 0.0 10051299
22:00+13всв22720 0.0 100834
23 мая, пн
пн2301:00+11св118092 0.0 100911
04:00+10св11845 0.0 100910
07:00+12всв12731 0.0 101055
10:00+21юз013644 0.0 1010671
13:00+21зюз45386 0.0 1010946
16:00+21юз47395 0.0 10091067
19:00+18ю385239 0.0 1011752
22:00+12юв237634 0.0 101256
24 мая, вт
вт2401:00+11юв2384100 0.1 101262
04:00+11вюв2283100 0.1 101250
07:00+13вюв237998 0.0 101198
10:00+20ююз2463100 0.0 1011686
13:00+22юз345895 0.1 1010692
16:00+22зюз356092 0.2 1009606
19:00+16ююв1288100 0.5 1009198
22:00+16вюв119099 0.6 100931
25 мая, ср
ср2501:00+13юв009828 0.0 101020
04:00+13ю11955 0.0 100913
07:00+14ссз009023 0.0 100945
10:00+23з115276 0.0 1008385
13:00+26з22396 0.0 1007854
16:00+26юз233893 0.0 1006746
19:00+18з126574 0.0 1006118
22:00+14в2281100 0.0 100818
26 мая, чт
чт2601:00+14в2275100 0.0 100719
04:00+13ю1181100 0.0 100715
07:00+14ссв1179100 0.0 100856
10:00+19юз1359100 0.0 1007652
13:00+18зюз3462100 0.0 1007608
16:00+18зюз2363100 0.0 1006746
19:00+15юз2293100 1.0 1005215
22:00+12ю019872 2.5 100641